User: anonymous   Login
Location: Unspecified
(0.0000°N, 0.0000°E)
Time: 10:08:20
(UTC+00:00)
Language:

Kosmos-2195 - Orbit

View from above orbital plane
View from above orbital plane
View from above satellite
View from above satellite

Ground track
Ground track

The orbit data is extracted from the following two-line orbital elements,

1 22006U 92036A   21016.71213506  .00000037  00000-0  22742-4 0  9996
2 22006  82.9339  84.8890 0037643  32.3598  79.1065 13.74959657432379
Epoch (UTC): 16 January 2021 17:05:28
Eccentricity: 0.0037643
inclination: 82.9339°
perigee height: 954 km
apogee height: 1009 km
right ascension of ascending node: 84.8890°
argument of perigee: 32.3598°
revolutions per day: 13.74959657
mean anomaly at epoch: 79.1065°
orbit number at epoch: 43237

The dashed part of the orbit path shows where the satellite is in the earth's shadow,  

DLR